Weather History for Boscobel, WI

Change the Weather History Date:

Thursday, February 27, 2014

  Actual Average (KPDC) Record (KPDC)
Temperature  
Mean Temperature 0 °F -  
Max Temperature 9 °F 38 °F 55 °F (1958)
Min Temperature -9 °F 21 °F -8 °F (2014)
Degree Days  
Heating Degree Days 65    
Moisture  
Dew Point -16 °F    
Average Humidity 47    
Maximum Humidity 74    
Minimum Humidity 31    
Precipitation  
Precipitation 0.00 in - - ()
Sea Level Pressure  
Sea Level Pressure 30.15 in    
Wind  
Wind Speed 9 mph (NW)    
Max Wind Speed 17 mph    
Max Gust Speed 23 mph    
Visibility 9 miles    
Events      
Averages and records for this station are not official NWS values.
T = Trace of Precipitation, MM = Missing Value Source: NWS Daily Summary

Daily Weather History Graph

Daily Weather History Graph

Search for Another Location

Airport:

Trip Planner

Search our weather history database for the weather conditions in past years. The results will help you decide how hot, cold, wet, or windy it might be!

Date:

Astronomy

Feb. 27, 2014 Rise Set
Actual Time 6:42 AM CST 5:49 PM CST
Civil Twilight 6:13 AM CST 6:18 PM CST
Nautical Twilight 5:40 AM CST 6:51 PM CST
Astronomical Twilight 5:07 AM CST 7:23 PM CST
Moon 5:16 AM CST (2/27) 4:13 PM CST (2/27)
Length of Visible Light 12h 04m
Length of Day
11h 07m
Waning Crescent, 4% of the Moon is Illuminated
Feb 27
Waning Crescent
Mar 1
New
Mar 8
First Quarter
Mar 16
Full
Mar 23
Last Quarter

Hourly Weather History & Observations

Time (CST) Temp. Windchill Dew Point Humidity Pressure Visibility Wind Dir Wind Speed Gust Speed Precip Events Conditions
12:53 AM 9.0 °F - -7.1 °F 48% 29.85 in 10.0 mi North - - N/A   Clear
1:53 AM 7.0 °F -11.0 °F -9.0 °F 48% 29.89 in 10.0 mi NW 16.1 mph 23.0 mph N/A   Partly Cloudy
2:53 AM 3.9 °F -15.6 °F -16.1 °F 39% 29.94 in 10.0 mi NW 17.3 mph 23.0 mph N/A   Clear
3:53 AM 1.9 °F -17.5 °F -16.1 °F 43% 29.99 in 10.0 mi NNW 16.1 mph 21.9 mph N/A   Clear
4:53 AM -0.0 °F -17.1 °F -17.0 °F 45% 30.04 in 10.0 mi NNW 11.5 mph 20.7 mph N/A   Clear
5:53 AM -0.9 °F -15.3 °F -18.0 °F 44% 30.09 in 10.0 mi NW 8.1 mph - N/A   Clear
6:53 AM -2.9 °F -18.8 °F -18.0 °F 49% 30.13 in 10.0 mi NNW 9.2 mph - N/A   Clear
7:53 AM -2.0 °F -15.4 °F -18.0 °F 47% 30.17 in 10.0 mi NW 6.9 mph - N/A   Clear
8:53 AM -2.0 °F -18.7 °F -18.9 °F 45% 30.20 in 10.0 mi North 10.4 mph - N/A   Clear
9:53 AM -0.0 °F -17.1 °F -18.0 °F 43% 30.22 in 10.0 mi North 11.5 mph - N/A   Clear
10:53 AM 1.9 °F -13.8 °F -18.0 °F 39% 30.24 in 10.0 mi WNW 10.4 mph - 0.00 in   Clear
11:53 AM 3.0 °F -6.4 °F -20.9 °F 32% 30.23 in 10.0 mi Variable 4.6 mph - 0.00 in   Clear
12:53 PM 3.9 °F - -18.0 °F 36% 30.22 in 10.0 mi Calm Calm - 0.00 in   Clear
1:53 PM 6.1 °F -4.3 °F -18.0 °F 32% 30.21 in 10.0 mi West 5.8 mph - N/A   Clear
2:53 PM 8.1 °F -2.0 °F -17.0 °F 31% 30.21 in 10.0 mi NW 5.8 mph - N/A   Clear
3:53 PM 7.0 °F -4.5 °F -15.0 °F 36% 30.20 in 10.0 mi West 6.9 mph - N/A   Clear
4:53 PM 7.0 °F -1.7 °F -17.0 °F 33% 30.21 in 10.0 mi West 4.6 mph - N/A   Clear
5:53 PM 5.0 °F - -15.0 °F 39% 30.21 in 10.0 mi Calm Calm - N/A   Clear
6:53 PM -0.0 °F - -14.1 °F 52% 30.22 in 10.0 mi Calm Calm - N/A   Clear
7:19 PM -2.0 °F - -14.1 °F 57% 30.16 in 2.5 mi Calm Calm - N/A   Haze
7:26 PM -2.0 °F - -14.1 °F 57% 30.16 in 5.0 mi Calm Calm - N/A   Haze
7:53 PM -4.0 °F - -14.1 °F 62% 30.23 in 9.0 mi Calm Calm - N/A   Clear
8:53 PM -6.0 °F - -15.0 °F 65% 30.25 in 9.0 mi Calm Calm - N/A   Clear
9:53 PM -6.0 °F - -15.0 °F 65% 30.24 in 10.0 mi Calm Calm - N/A   Clear
10:53 PM -9.0 °F - -16.1 °F 71% 30.24 in 10.0 mi Calm Calm - N/A   Clear
11:53 PM -9.9 °F - -16.1 °F 74% 30.23 in 10.0 mi Calm Calm - N/A   Clear